Location: *
(49.9853°N, 3.5569°E)
Time: 22:28:59
(UTC+00:00)

CZ-4C R/B - Pass Details

Date: 22 September 2019
Orbit: 654 x 1348 km, 63.4° (Epoch: 14 October)

Event Time Altitude Azimuth Distance (km) Brightness Sun altitude
Rises 22:48:08 0° 316° (NW) 3,770 6.3 -38.7°
Reaches altitude 10° 22:50:36 10° 316° (NW) 2,910 5.5 -38.8°
Enters shadow 22:54:59 44° 310° (NW) 1,560 3.7 -39.0°
